000  
ASUS46 KPQR 150010  
RWROR  
 
OREGON REGIONAL WEATHER ROUNDUP  
NATIONAL WEATHER SERVICE PORTLAND OR  
400 PM PST THU DEC 14 2017  
 
NOTE: "FAIR" INDICATES FEW OR NO CLOUDS BELOW 12,000 FEET WITH  
NO SIGNIFICANT WEATHER AND/OR S TO VISIBILITY
.  
 
ORZ001>013-150100-  
NORTHWEST OREGON  
 
 
CITY SKY/WX TMP DP RH WIND PRES REMARKS
 
ASTORIA MOCLDY 46 35 65 NE8 30.23S  
6HR MIN TEMP: 44; 6HR MAX TEMP: 51;  
 
NEWPORT MOCLDY 50 34 53 E10 30.24  
PORTLAND MOCLDY 40 28 62 SE14 30.30S WCI 32  
6HR MIN TEMP: 40; 6HR MAX TEMP: 44;  
 
VANCOUVER WA MOCLDY 40 29 64 SE8 30.30S WCI 34  
6HR MIN TEMP: 40; 6HR MAX TEMP: 44;  
 
SCAPPOOSE CLOUDY 41 28 60 S7 30.29F  
6HR MIN TEMP: 40; 6HR MAX TEMP: 44;  
 
HILLSBORO CLOUDY 41 29 62 CALM 30.30R  
6HR MIN TEMP: 35; 6HR MAX TEMP: 45;  
 
AURORA MOCLDY 42 28 57 NW6 30.29S  
6HR MIN TEMP: 37; 6HR MAX TEMP: 47;  
 
MCMINNVILLE CLOUDY 43 31 62 N6 30.29S  
6HR MIN TEMP: 42; 6HR MAX TEMP: 46;  
 
SALEM MOCLDY 43 29 57 N8 30.27S  
6HR MIN TEMP: 40; 6HR MAX TEMP: 46;  
 
CORVALLIS MOCLDY 43 31 62 CALM 30.28S  
EUGENE MOCLDY 39 35 86 NE3 30.27R  
6HR MIN TEMP: 31; 6HR MAX TEMP: 43;  
 

 
 
ORZ021-028-150100-  
SOUTHWEST OREGON  
 
 
CITY SKY/WX TMP DP RH WIND PRES REMARKS
 
NORTH BEND PTCLDY 54 41 61 W7 30.20R  
6HR MIN TEMP: 48; 6HR MAX TEMP: 56;  
 
BROOKINGS PTCLDY 58 43 57 SE3 30.14R  
ROSEBURG CLOUDY 35 34 96 CALM 30.27S FOG  
6HR MIN TEMP: 32; 6HR MAX TEMP: 36;  
 
SEXTON SUMMIT MOCLDY 54 23 30 CALM 30.23R  
6HR MIN TEMP: 53; 6HR MAX TEMP: 58;  
 
GRANTS PASS FOG 34 34 100 CALM 30.28R VSB 1/4  
MEDFORD PTCLDY 48 36 63 NW3 30.20F  
6HR MIN TEMP: 28; 6HR MAX TEMP: 50;  
 

 
 
ORZ014>016-041-150100-  
COLUMBIA GORGE  
 
 
CITY SKY/WX TMP DP RH WIND PRES REMARKS
 
TROUTDALE MOCLDY 39 27 62 E26G37 30.29F WCI 28  
6HR MIN TEMP: 38; 6HR MAX TEMP: 42;  
 
HOOD RIVER CLOUDY 32 27 80 E6 30.52R HAZE WCI 26  
THE DALLES CLOUDY 36 26 67 SE5 30.53S WCI 32  
6HR MIN TEMP: 35; 6HR MAX TEMP: 37;  
 

 
 
ORZ029>031-041-044-049-050-061>064-502-503-505>511-150100-  
EASTERN OREGON  
 
 
CITY SKY/WX TMP DP RH WIND PRES REMARKS
 
MADRAS CLOUDY N/A N/A N/A MISG 30.41F  
REDMOND PTCLDY 23 20 88 N3 30.34S  
6HR MIN TEMP: 19; 6HR MAX TEMP: 25;  
 
BEND PTCLDY 27 23 86 CALM 30.33S  
PRINEVILLE PTCLDY 23 23 100 CALM 30.34S  
KLAMATH FALLS PTCLDY 40 27 59 NW5 30.29F  
6HR MIN TEMP: 34; 6HR MAX TEMP: 47;  
 
LAKEVIEW PTCLDY 38 24 57 S5 30.30F WCI 34  
HERMISTON CLOUDY 32 29 88 CALM 30.50F  
6HR MIN TEMP: 31; 6HR MAX TEMP: 33;  
 
PENDLETON CLOUDY 29 24 82 SE5 30.45F WCI 24  
6HR MIN TEMP: 28; 6HR MAX TEMP: 29;  
 
JOHN DAY MOCLDY 42 26 53 E6 30.30F  
MEACHAM MOCLDY 30 24 78 CALM 30.32S  
6HR MIN TEMP: 27; 6HR MAX TEMP: 32;  
 
LA GRANDE MOCLDY 29 24 82 S18 30.40F WCI 16  
6HR MIN TEMP: 29; 6HR MAX TEMP: 34;  
 
BAKER CITY CLOUDY 28 22 78 E9 30.43S WCI 19  
6HR MIN TEMP: 27; 6HR MAX TEMP: 29;  
 
BURNS MOCLDY 28 24 85 E7 30.37F WCI 21  
6HR MIN TEMP: 24; 6HR MAX TEMP: 35;  
 
ROME N/A 27 23 85 E7 30.38F WCI 19  
6HR MIN TEMP: 23; 6HR MAX TEMP: 34;  
 
ONTARIO CLOUDY 29 24 82 VRB3 30.55F  
6HR MIN TEMP: 26; 6HR MAX TEMP: 30;  
 

 
 
 
CLICK HERE TO GO TO PREVIOUS BULLETINS.

The Nexlab OR Page Main Text Page